This is the latest recevied weather packets stored in our database for station/object NC4J. If no packets are shown the sender has not sent any weather packets the latest 10 day(s).
| Time | Temp. | Humidity | Pressure | Rain* | Wind** | Luminosity | Snow |
|---|---|---|---|---|---|---|---|
| 1777407560 | 20.56° C | 72% | 1018.5 hPa | 0 mm | - | 190 W/m² | - |
| 1777407259 | 20° C | 71% | 1018.7 hPa | 0 mm | - | 246 W/m² | - |
| 1777406959 | 20° C | 70% | 1018.5 hPa | 0 mm | - | 84 W/m² | - |
| 1777406653 | 20° C | 73% | 1018.5 hPa | 0 mm | - | 263 W/m² | - |
| 1777406350 | 20° C | 70% | 1018.9 hPa | 0 mm | - | 232 W/m² | - |
| 1777406049 | 20° C | 69% | 1018.8 hPa | 0 mm | - | 155 W/m² | - |
| 1777405746 | 20° C | 70% | 1018.9 hPa | 0 mm | - | 322 W/m² | - |
| 1777405442 | 20° C | 72% | 1019 hPa | 0 mm | - | 163 W/m² | - |
| 1777405140 | 20° C | 70% | 1019 hPa | 0 mm | - | 100 W/m² | - |
| 1777404838 | 19.44° C | 71% | 1019.4 hPa | 0 mm | - | 116 W/m² | - |
| 1777404535 | 20° C | 70% | 1019.4 hPa | 0 mm | - | 179 W/m² | - |
| 1777404230 | 20° C | 70% | 1019.5 hPa | 0 mm | - | 344 W/m² | - |
| 1777403927 | 19.44° C | 72% | 1019.6 hPa | 0 mm | - | 252 W/m² | - |
| 1777403626 | 19.44° C | 72% | 1019.5 hPa | 0 mm | - | 103 W/m² | - |
| 1777403321 | 18.89° C | 72% | 1019.8 hPa | 0 mm | - | 337 W/m² | - |
| 1777403016 | 18.89° C | 77% | 1019.7 hPa | 0 mm | - | 111 W/m² | - |
| 1777402712 | 18.89° C | 73% | 1019.9 hPa | 0 mm | - | 98 W/m² | - |
| 1777402412 | 18.33° C | 77% | 1019.9 hPa | 0 mm | - | 99 W/m² | - |
| 1777402110 | 17.78° C | 74% | 1020.2 hPa | 0 mm | - | 113 W/m² | - |
| 1777401806 | 17.78° C | 74% | 1020 hPa | 0 mm | - | 216 W/m² | - |
| 1777401505 | 17.78° C | 76% | 1020 hPa | 0 mm | - | 262 W/m² | - |
| 1777401201 | 17.22° C | 76% | 1020.1 hPa | 0 mm | - | 127 W/m² | - |
| 1777400897 | 17.78° C | 76% | 1020.4 hPa | 0 mm | - | 232 W/m² | - |
| 1777400593 | 17.22° C | 77% | 1020.1 hPa | 0 mm | - | 237 W/m² | - |
| 1777400291 | 16.67° C | 79% | 1020.4 hPa | 0 mm | - | 314 W/m² | - |
* Rain latest hour (hover to see other rain measurements)
** Current wind speed in m/s (hover to see current wind gust speed)